FENGYUN 1C DEB

Satellite information

Favourite Embed

Satellite Type and Status

DEBRISIN ORBIT

Key statistics

Satellite FENGYUN 1C DEB at a glance.

Uptime

9554

Days in orbit

Revolutions

≈ 13.4

Per day

Orbit

SSO

Sun Synchronous Orbit

Inclination

98.9

Latest

Satellite identification and parameters

Extended collection of information and parameters for FENGYUN 1C DEB.

Object identification

Identified? True

Debris? True

Object name: FENGYUN 1C DEB

International designator: 1999-025DPG

Object number (NORAD): 35200

Object ID (CCSDS): 35200

Country: PEOPLES REPUBLIC OF CHINA (PRC)

Current information (Y/N): Y

RCS size: SMALL

Orbital parameters

Period: 107.315 minutes

Inclination: 98.8505 deg

SMA: 7480.541 km

Apoapsis: 1367.319 km

Periapsis: 837.494 km

RAAN: 183.1738 deg

Eccentricy: 0.0354136

Argument of periapsis: 103.9162 deg

Mean anomaly: 44.8594 deg

Mean motion: 13.41847659 rev/day

Mean motion (dot): 0.00000201 rev/day2

B* drag term: 0.00028906 1/REarth

Two-line elements (TLE)

Creation date: July 5, 2025, 5:45 p.m.

Reference frame: TEME

Reference center: EARTH

Epoch: July 5, 2025, 11:43 a.m. UTC

TLE line 0: 0 FENGYUN 1C DEB

TLE line 1: 1 35200U 99025DPG 25186.48849620 .00000201 00000-0 28906-3 0 9999

TLE line 2: 2 35200 98.8505 183.1738 0354136 103.9162 44.8594 13.41847659637549

Live tracking on map

Real-time ground track for satellite FENGYUN 1C DEB.

In-orbit conjunctions

A list of the most updated potential collisions computed for object FENGYUN 1C DEB.

Target Orbit TCA Probability of collision Miss distance Type
CZ-6A DEB LEO 2024-10-07 20:42:52 0.0002205369 354.0 (m) DEBRIS
SL-16 DEB LEO 2024-09-07 15:49:38 0.0001289843 459.0 (m) DEBRIS
SL-3 R/B LEO 2024-07-20 03:57:12 0.000204622 525.0 (m) ROCKET BODY
COSMOS 807 LEO 2024-06-04 05:27:51 0.0001332972 499.0 (m) PAYLOAD

Associated space launch

Chinese polar orbiting meteorological satellite

FENGYUN 1C DEB was lifted into orbit during the mission ‘Long March 4B | Feng Yun 1C’, on board a Long March 4B space rocket.

The launch took place on May 10, 1999, 1:33 a.m. from Launch Complex 7.

For more information about the launch, click the button.

Launch to space Long March 4B | Feng Yun 1C
Long March 4B | Feng Yun 1C

Agency: N/A

Status: Launch Successful

Launch date: May 10, 1999, 1:33 a.m. UTC

Rocket: Long March 4B

Launch pad: Launch Complex 7

Location: Taiyuan Satellite Launch Center, People's Republic of China

...

Latest news about this satellite

There are no fresh news available about this satellite. Check back as we update our databases every day.


Newsletter sign-up

Weekly statistics, charts and insights to help you stay on top of the space industry.